Location: Chena
(64.8152°N, 147.9227°W)
Time: 08:16:20
(UTC+00:00)

N. Korean satellite - Pass Details

Date: 27 January 2021
Orbit: 451 x 502 km, 97.2° (Epoch: 08 March)

Event Time Altitude Azimuth Distance (km) Brightness Sun altitude
Rises 03:31:29 0° 210° (SSW) 2,574 11.0 -13.2°
Reaches altitude 10° 03:34:08 10° 231° (SW) 1,687 10.4 -13.5°
Maximum altitude 03:36:34 17° 273° (W) 1,308 9.8 -13.7°
Drops below altitude 10° 03:39:00 10° 316° (NW) 1,676 9.7 -14.0°
Sets 03:41:38 0° 337° (NNW) 2,549 10.4 -14.2°
